PDT,Max TemperatureF,Mean TemperatureF,Min TemperatureF,Max Dew PointF,MeanDew PointF,Min DewpointF,Max Humidity, Mean Humidity, Min Humidity, Max Sea Level PressureIn, Mean Sea Level PressureIn, Min Sea Level PressureIn, Max VisibilityMiles, Mean VisibilityMiles, Min VisibilityMiles, Max Wind SpeedMPH, Mean Wind SpeedMPH, Max Gust SpeedMPH,PrecipitationIn, CloudCover, Events, WindDirDegrees
2013-7-1,72,63,54,56,54,52,93,77,61,29.94,29.88,29.83,10,7,0,13,3,16,0.00,3,Fog,336
2013-7-2,74,65,56,57,55,54,100,77,53,30.01,29.94,29.88,10,7,0,17,4,21,0.00,5,Fog,263
2013-7-3,77,67,56,58,56,55,100,77,54,29.99,29.90,29.83,10,7,0,10,3,14,0.00,5,Fog,353
2013-7-4,79,68,56,56,55,49,93,70,47,29.86,29.83,29.80,10,9,2,16,6,21,0.00,2,,251
2013-7-5,64,61,57,52,52,50,80,74,67,29.93,29.88,29.83,10,8,5,15,10,25,0.00,7,,240
2013-7-6,65,60,55,52,52,51,86,75,63,29.91,29.88,29.83,10,10,6,16,7,21,0.00,7,,225
2013-7-7,68,61,54,52,52,50,93,74,55,29.94,29.89,29.87,10,10,9,18,6,22,0.00,4,,223
2013-7-8,68,62,56,54,52,51,86,71,55,30.04,29.99,29.90,10,10,9,12,5,15,0.00,4,,311
2013-7-9,68,60,51,54,53,50,96,80,63,30.08,30.04,30.00,10,7,2,10,5,15,0.00,5,,307
2013-7-10,67,60,53,55,53,52,93,78,63,30.06,30.02,29.97,10,9,2,14,5,17,0.00,6,,241
2013-7-11,64,59,54,53,52,51,93,80,67,30.04,30.00,29.96,10,10,9,14,5,18,0.00,7,,265
2013-7-12,66,60,53,53,52,50,93,80,67,30.02,29.99,29.94,10,10,9,14,6,18,0.00,5,,265
2013-7-13,69,61,52,54,52,50,96,78,59,30.04,30.01,29.98,10,9,5,12,5,17,0.00,4,,276
2013-7-14,64,59,53,54,52,51,93,83,72,30.07,30.03,29.97,10,8,2,13,5,17,0.00,6,,261
2013-7-15,65,59,53,53,52,51,93,78,63,30.01,29.97,29.91,10,10,9,15,6,21,0.00,7,,242
2013-7-16,68,62,56,54,53,51,86,72,58,30.09,30.01,29.93,10,10,7,15,6,24,0.00,6,,225
2013-7-17,65,61,56,55,54,51,93,80,67,30.15,30.11,30.05,10,10,7,15,6,20,0.00,7,,267
2013-7-18,63,58,53,54,53,52,100,86,72,30.12,30.07,30.01,10,6,0,13,6,16,0.00,6,Fog,261
2013-7-19,63,58,53,54,52,51,93,80,67,30.03,29.98,29.92,10,6,1,15,7,17,0.00,7,,255
2013-7-20,60,57,53,52,52,51,93,83,72,29.94,29.91,29.85,10,7,1,15,7,18,0.00,8,,232
2013-7-21,69,61,52,54,52,51,93,78,63,29.97,29.89,29.85,10,9,3,17,5,20,0.00,6,,236
2013-7-22,73,65,56,57,55,53,93,77,61,30.02,29.99,29.94,10,7,0,15,4,18,0.00,5,Fog,300
2013-7-23,72,65,57,58,56,55,100,83,66,30.06,30.03,29.98,10,8,1,15,4,18,0.00,4,,254
2013-7-24,70,62,54,56,55,53,93,77,61,30.06,30.01,29.96,10,5,0,13,4,25,0.00,6,Fog,299
2013-7-25,69,62,54,55,53,52,100,80,59,30.11,30.05,29.98,10,9,3,15,5,18,0.00,5,,286
2013-7-26,70,63,55,55,54,53,93,81,68,30.17,30.13,30.09,10,8,2,13,5,16,0.00,6,,273
2013-7-27,68,62,55,55,54,53,93,78,63,30.10,30.02,29.93,10,8,3,15,6,20,0.00,6,,247
2013-7-28,66,60,54,54,53,52,93,80,67,29.97,29.94,29.90,10,9,6,18,7,25,0.00,7,,220
2013-7-29,69,63,57,55,53,51,86,73,59,30.09,30.02,29.94,10,10,8,22,6,26,0.00,6,,210
2013-7-30,68,63,58,55,54,53,86,75,63,30.16,30.13,30.09,10,9,7,20,6,53,0.00,6,,265
2013-7-31,64,60,56,54,52,51,86,77,67,30.17,30.14,30.09,10,10,9,15,6,20,0.00,6,,244